User: anonymous   Login
Location: Archamps
(46.1365°N, 6.1329°E)
Time: 21:05:07
(UTC+00:00)
Language:

FENGYUN 1C DEB - Orbit

View from above orbital plane
View from above orbital plane
View from above satellite
View from above satellite

Ground track
Ground track

The orbit data is extracted from the following two-line orbital elements,

1 33691U 99025DGC 24019.10055435  .00006786  00000-0  36922-2 0  9997
2 33691  99.0977 337.5246 0076915 232.9671 126.4447 14.11045156806700
Epoch (UTC): 19 January 2024 02:24:47
Eccentricity: 0.0076915
inclination: 99.0977°
perigee height: 800 km
apogee height: 911 km
right ascension of ascending node: 337.5246°
argument of perigee: 232.9671°
revolutions per day: 14.11045156
mean anomaly at epoch: 126.4447°
orbit number at epoch: 80670

The dashed part of the orbit path shows where the satellite is in the earth's shadow,  

DLR